Flag for USA

Past Weather in 30°23'36.9"N, 86°29'44.9"W, USA — Yesterday and Last 2 Weeks

Currently: 70 °F. Partly sunny. (Weather station: Destin-Ft. Walton Beach Airport, USA). See more current weather

Past Weather in 30°23'36.9"N, 86°29'44.9"W — Graph

°F

30°23'36.9"N, 86°29'44.9"W Temperature Yesterday

Maximum temperature yesterday: 72 °F (at 11:53 am)
Minimum temperature yesterday: 64 °F (at 6:53 pm)
Average temperature yesterday: 67 °F

High & Low Weather Summary for the Past Weeks

 TemperatureHumidityPressure
High75 °F (Feb 23, 2:53 pm)94% (Feb 23, 6:53 am)30.34 "Hg (Feb 23, 6:53 am)
Low40 °F (Feb 19, 4:53 am)25% (Feb 19, 12:53 pm)29.72 "Hg (Feb 23, 2:53 pm)
Average58 °F68%30.08 "Hg
* Reported Feb 13 8:53 am — Feb 28 8:53 am, 30°23'36.9"N, 86°29'44.9"W. Weather by CustomWeather, © 2024

Note: Actual official high and low records may vary slightly from our data, if they occured in-between our weather recording intervals... More about our weather records

30°23'36.9"N, 86°29'44.9"W Weather History for the Previous 24 Hours

Scroll right to see more
 ConditionsComfort  
Time TempWeatherWind HumidityBarometerVisibility
8:53 am
Wed, Feb 28
70 °FPartly sunny.8 mph84%30.03 "Hg7 mi
7:53 am68 °FFog.9 mph87%30.01 "Hg5 mi
6:53 am67 °FFog.9 mph90%30.00 "Hg6 mi
5:53 am67 °FBroken clouds.9 mph90%29.98 "Hg8 mi
4:53 am67 °FOvercast.5 mph87%29.97 "Hg8 mi
3:53 am67 °FOvercast.5 mph87%29.97 "Hg8 mi
2:53 am67 °FOvercast.5 mph87%29.95 "Hg10 mi
2:18 am67 °FPassing clouds.8 mph90%29.95 "Hg10 mi
1:53 am66 °FOvercast.6 mph90%29.95 "Hg9 mi
1:25 am66 °FOvercast.6 mph90%29.97 "Hg9 mi
12:53 am66 °FOvercast.7 mph90%29.97 "Hg9 mi
11:53 pm
Tue, Feb 27
66 °FOvercast.9 mph90%29.96 "Hg9 mi
10:53 pm66 °FOvercast.9 mph90%29.98 "Hg9 mi
10:18 pm66 °FOvercast.9 mph90%29.99 "Hg9 mi
9:53 pm66 °FOvercast.9 mph90%29.98 "Hg9 mi
9:30 pm65 °FOvercast.8 mph94%29.99 "Hg9 mi
8:53 pm65 °FMostly cloudy.10 mph94%29.99 "Hg10 mi
7:53 pm64 °FMostly cloudy.9 mph94%29.99 "Hg8 mi
6:53 pm64 °FOvercast.12 mph90%29.99 "Hg9 mi
5:53 pm65 °FOvercast.12 mph87%30.00 "Hg10 mi
4:53 pm66 °FPassing clouds.14 mph84%30.00 "Hg10 mi
3:53 pm68 °FMostly cloudy.12 mph82%30.01 "Hg10 mi
2:53 pm69 °FBroken clouds.13 mph79%30.01 "Hg10 mi
1:53 pm70 °FPartly sunny.13 mph79%30.01 "Hg10 mi
12:53 pm71 °FMostly cloudy.9 mph76%30.02 "Hg10 mi
11:53 am72 °FPartly sunny.9 mph73%30.04 "Hg10 mi
10:53 am71 °FOvercast.7 mph78%30.05 "Hg10 mi
Weather by CustomWeather, © 2024

See weather overview